Location: 476 Grange Obs.
(45.1421°N, 7.1417°E)
Time: 17:37:02
(UTC+02:00)

OTV 5 (USA 277) - Visible Passes

Search period start: 26 April 2019 00:00
Search period end: 06 May 2019 00:00
Orbit: 310 x 325 km, 54.5° (Epoch: 24 April)

Date Brightness Start Highest point End Pass type
(mag) Time Alt. Az. Time Alt. Az. Time Alt. Az.
26 Apr ? 22:06:10 10° W 22:08:34 27° NNW 22:10:58 10° NE visible
26 Apr ? 23:42:23 10° NNW 23:43:14 12° NNW 23:43:14 12° NNW visible
27 Apr ? 22:21:37 10° WNW 22:23:33 17° NNW 22:25:29 10° NNE visible
27 Apr ? 23:57:35 10° NNW 23:57:47 11° NNW 23:57:47 11° NNW visible
28 Apr ? 22:37:11 10° NW 22:38:36 13° N 22:40:02 10° NNE visible
29 Apr ? 21:16:25 10° WNW 21:18:37 21° NNW 21:20:48 10° NNE visible
29 Apr ? 22:52:36 10° NNW 22:53:43 12° N 22:54:51 10° NNE visible
30 Apr ? 21:31:57 10° NW 21:33:38 15° NNW 21:35:19 10° NNE visible
30 Apr ? 23:07:32 10° NNW 23:08:50 13° N 23:09:35 12° NNE visible
01 May ? 21:47:30 10° NNW 21:48:43 12° N 21:49:57 10° NNE visible
01 May ? 23:22:07 10° NNW 23:23:41 16° N 23:23:41 16° N visible
02 May ? 22:02:40 10° NNW 22:03:51 12° N 22:05:01 10° NNE visible
02 May ? 23:36:37 10° NW 23:37:44 18° NNW 23:37:44 18° NNW visible
03 May ? 22:17:24 10° NNW 22:18:57 14° NNE 22:20:31 10° NE visible
03 May ? 23:51:10 10° NW 23:51:48 15° NW 23:51:48 15° NW visible
04 May ? 22:31:55 10° NNW 22:34:00 19° NNE 22:34:58 16° NE visible
05 May ? 21:12:38 10° NNW 21:13:58 13° N 21:15:18 10° NE visible
05 May ? 22:46:26 10° NW 22:48:57 32° NNE 22:49:02 32° NNE visible
